Flag for Canada Weather past 2 weeks in Québec, Quebec, Canada

Now
77 °F

Broken clouds.


Feels Like: 78 °F
Forecast: N/A
Wind: 15 mph from West

Location: Quebec Weather Station

Current Time: Jul 3, 2015 at 6:34:20 PM

Latest Report: Jul 3, 2015 at 5:00 PM


Visibility: 30 mi

Pressure: 29.83 "Hg

Humidity: 32%

Dew point: 45 °F

Location of QuébecLocation

Historic Weather in Québec — Graph

°F

Québec temperature yesterday

Maximum temperature yesterday: 66 °F (at 3:00 PM)
Minimum temperature yesterday: 57 °F (at 3:00 AM)
Average temperature yesterday: 60 °F

Past Weeks' High & Low Weather Summary

 TemperatureHumidityPressure
High77 °F (Jun 18, 5:00 PM)100% (Jun 23, 12:00 PM)30.19 "Hg (Jun 23, 12:00 PM)
Low45 °F (Jun 25, 5:00 AM)29% (Jun 27, 4:00 PM)29.51 "Hg (Jun 23, 7:00 PM)
Average62 °F72%29.88 "Hg
* Reported Jun 18 5:00 PM — Jul 3 5:00 PM, Québec, Weather by CustomWeather, © 2015

Note: Actual official high and low records may vary slightly from our data, if they occured in-between our weather recording intervals... More about our weather records

Advertising

Québec weather history for previous 24 hours

 ConditionsComfort  
Time TempWeatherWind HumidityBarometerVisibility
5:00 PM
Fri, Jul 3
77 °FBroken clouds.15 mph32%29.83 "Hg30 mi
4:00 PM77 °FBroken clouds.15 mph36%29.83 "Hg30 mi
3:00 PM77 °FBroken clouds.18 mph32%29.84 "Hg30 mi
2:00 PM77 °FBroken clouds.15 mph39%29.85 "Hg30 mi
1:00 PM73 °FScattered clouds.12 mph44%29.85 "Hg30 mi
12:00 PM72 °FScattered clouds.17 mph47%29.86 "Hg30 mi
11:00 AM68 °FScattered clouds.16 mph49%29.87 "Hg30 mi
10:00 AM66 °FPartly sunny.14 mph56%29.87 "Hg30 mi
9:00 AM63 °FScattered clouds.12 mph64%29.87 "Hg30 mi
8:00 AM59 °FScattered clouds.12 mph77%29.86 "Hg30 mi
7:00 AM54 °FScattered clouds.10 mph82%29.85 "Hg30 mi
6:00 AM52 °FPartly sunny.12 mph94%29.83 "Hg30 mi
5:00 AM52 °FPassing clouds.12 mph94%29.83 "Hg30 mi
4:00 AM54 °FPassing clouds.9 mph88%29.83 "Hg20 mi
3:00 AM55 °FPassing clouds.12 mph82%29.82 "Hg15 mi
2:00 AM54 °FPassing clouds.9 mph82%29.83 "Hg15 mi
1:00 AM52 °FPassing clouds.10 mph88%29.84 "Hg15 mi
12:00 AM54 °FPassing clouds.8 mph82%29.85 "Hg15 mi
11:00 PM
Thu, Jul 2
59 °FPassing clouds.5 mph59%29.85 "Hg15 mi
10:00 PM59 °FPassing clouds.5 mph63%29.86 "Hg15 mi
9:00 PM59 °FPartly sunny.12 mph63%29.85 "Hg15 mi
8:00 PM61 °FPartly sunny.10 mph59%29.84 "Hg15 mi
7:00 PM63 °FPartly sunny.14 mph59%29.83 "Hg15 mi
6:00 PM64 °FPartly sunny.18 mph60%29.80 "Hg15 mi
Weather by CustomWeather, © 2015

See weather overviewHow to use our weather pages